• MPC Preparation (Info)

  • MPEC 2016-O56 : 2014 QY441

    The following Minor Planet Electronic Circular may be linked-to from your own Web pages, but must not otherwise be redistributed electronically.

    A form allowing access to any MPEC is at the bottom of this page.


    Read MPEC 2016-O55 Read MPEC 2016-O57


    M.P.E.C. 2016-O56                                Issued 2016 July 16, 21:50 UT
    
         The Minor Planet Electronic Circulars contain information on unusual
             minor planets and routine data on comets.  They are published
        on behalf of Division F of the International Astronomical Union by the
              Minor Planet Center, Smithsonian Astrophysical Observatory,
                              Cambridge, MA 02138, U.S.A.
    
                 Prepared using the Tamkin Foundation Computer Network
    
                                  MPC@CFA.HARVARD.EDU
                URL https://www.minorplanetcenter.net/    ISSN 1523-6714
    
                                      2014 QY441
    
    Observations:
         K14Qi1Y  C2010 10 11.47078 04 24 37.146+19 12 01.02         21.4 wLEO056F51
         K14Qi1Y  C2010 10 11.48484 04 24 37.097+19 12 00.96         21.6 wLEO056F51
         K14Qi1Y  C2010 10 11.49917 04 24 37.053+19 12 00.65         21.4 wLEO056F51
         K14Qi1Y  C2010 10 11.51324 04 24 37.008+19 12 00.74         21.4 wLEO056F51
         K14Qi1Y  C2011 10 26.42204 04 29 45.114+19 39 28.29         21.4 wLEO056F51
         K14Qi1Y  C2011 10 26.43656 04 29 45.056+19 39 28.17         21.4 wLEO056F51
         K14Qi1Y  C2011 10 26.45111 04 29 44.986+19 39 28.02         21.4 wLEO056F51
         K14Qi1Y  C2011 10 26.46568 04 29 44.916+19 39 27.89         21.6 wLEO056F51
         K14Qi1Y  C2013 01 07.24162 04 29 25.058+19 58 03.62         21.4 wLEO056F51
         K14Qi1Y  C2013 01 07.25759 04 29 24.984+19 58 03.58         21.4 wLEO056F51
         K14Qi1Y  C2013 01 07.27629 04 29 24.900+19 58 03.61         21.5 wLEO056F51
         K14Qi1Y  C2013 01 07.29230 04 29 24.831+19 58 03.50         21.5 wLEO056F51
         K14Qi1Y* C2014 08 22.61635 04 49 23.316+21 05 16.70         21.9 wLEO056F51
         K14Qi1Y  C2014 08 22.61835 04 49 23.305+21 05 17.11         21.4 wLEO056F51
         K14Qi1Y  C2014 08 22.62032 04 49 23.302+21 05 16.45         21.6 wLEO056F51
         K14Qi1Y  C2014 11 12.55750 04 46 59.976+21 02 16.39         20.9 iLEO056F51
         K14Qi1Y  C2014 11 12.57026 04 46 59.920+21 02 16.17         20.8 iLEO056F51
         K14Qi1Y  C2014 11 12.58295 04 46 59.851+21 02 16.20         20.8 iLEO056F51
         K14Qi1Y  C2014 11 12.59574 04 46 59.769+21 02 15.79         20.9 iLEO056F51
         K14Qi1Y  C2014 11 17.35571 04 46 34.086+21 01 39.87         21.3 wLEO056F51
         K14Qi1Y  C2014 11 17.36859 04 46 34.012+21 01 39.76         21.3 wLEO056F51
         K14Qi1Y  C2014 11 17.38144 04 46 33.942+21 01 39.67         21.3 wLEO056F51
         K14Qi1Y  C2014 11 17.39431 04 46 33.865+21 01 39.59         21.3 wLEO056F51
         K14Qi1Y  C2015 01 22.34372 04 40 50.829+20 54 44.15         21.6 wLEO056F51
         K14Qi1Y  C2015 01 22.35767 04 40 50.781+20 54 44.10         21.6 wLEO056F51
         K14Qi1Y  C2015 01 22.37161 04 40 50.732+20 54 44.01         21.5 wLEO056F51
         K14Qi1Y  C2015 01 22.38552 04 40 50.676+20 54 43.97         21.6 wLEO056F51
         K14Qi1Y  C2015 01 24.32629 04 40 44.288+20 54 40.23         21.5 wLEO056F51
         K14Qi1Y  C2015 01 24.34076 04 40 44.253+20 54 40.28         21.4 wLEO056F51
         K14Qi1Y  C2015 01 24.35523 04 40 44.203+20 54 40.11         21.4 wLEO056F51
         K14Qi1Y  C2015 01 24.36977 04 40 44.143+20 54 40.04         21.6 wLEO056F51
    
    Observer details:
    F51 Pan-STARRS 1, Haleakala.  Observers B. Gibson, T. Goggia, N. Primak,
        A. Schultz, M. Willman.  Measurers K. Chambers, S. Chastel, Y.-T. Chen,
        L. Denneau, H. Flewelling, M. Holman, M. Huber, R. Jedicke, M. Lackner,
        E. Lilly, H.-W. Lin, E. Magnier, M. Micheli, M. Payne, P. Veres,
        R. Wainscoat, C. Waters, R. Weryk.  1.8-m Ritchey-Chretien + CCD.
    
    Orbital elements:
    2014 QY441
    Epoch 2016 July 31.0 TT = JDT 2457600.5                 MPC
    M 243.90781              (2000.0)            P               Q
    n   0.00448683     Peri.  119.20221     -0.93271376     +0.31597676
    a  36.4062687      Node    79.67405     -0.36042424     -0.83259388
    e   0.0804241      Incl.   10.17488     +0.01180697     -0.45491330
    P 220              H    5.4           G   0.15           U   3
    Residuals in seconds of arc
    101011 F51  0.0   0.0     130107 F51  0.1-  0.0     141117 F51  0.0   0.0
    101011 F51  0.1-  0.0     140822 F51  0.1+  0.0     150122 F51  0.0   0.1+
    101011 F51  0.0   0.1-    140822 F51  0.2-  0.4+    150122 F51  0.0   0.0
    101011 F51  0.0   0.1+    140822 F51  0.3-  0.3-    150122 F51  0.0   0.0
    111026 F51  0.0   0.0     141112 F51  0.0   0.0     150122 F51  0.1-  0.0
    111026 F51  0.1+  0.0     141112 F51  0.2+  0.1-    150124 F51  0.1-  0.0
    111026 F51  0.1+  0.0     141112 F51  0.1+  0.0     150124 F51  0.1+  0.1+
    111026 F51  0.0   0.0     141112 F51  0.0   0.3-    150124 F51  0.1+  0.0
    130107 F51  0.0   0.1-    141117 F51  0.0   0.0     150124 F51  0.1-  0.1-
    130107 F51  0.1-  0.1-    141117 F51  0.0   0.0
    130107 F51  0.1-  0.0     141117 F51  0.0   0.0
    
    Ephemeris:
    2014 QY441               a,e,i = 36.41, 0.08, 10                 q = 33.478
    Date    TT    R. A. (2000) Decl.     Delta      r     Elong.  Phase     V
    2016 06 16    04 55 28.1 +21 44 59  38.8822 37.8824    10.1     0.3    21.3
    ...
    2016 07 01    04 57 15.0 +21 48 15  38.8066 37.8795    23.9     0.6    21.4
    ...
    2016 07 09    04 58 08.5 +21 49 51  38.7427 37.8780    31.3     0.8    21.4
    ...
    2016 07 15    04 58 46.5 +21 50 58  38.6846 37.8769    36.9     0.9    21.4
    2016 07 16    04 58 52.6 +21 51 09  38.6742 37.8767    37.8     0.9    21.4
    2016 07 17    04 58 58.7 +21 51 20  38.6635 37.8765    38.8     1.0    21.4
    ...
    2016 07 23    04 59 33.6 +21 52 21  38.5950 37.8753    44.4     1.1    21.4
    ...
    2016 07 31    05 00 16.1 +21 53 35  38.4927 37.8738    51.8     1.2    21.4
    ...
    2016 08 15    05 01 21.1 +21 55 29  38.2722 37.8709    66.0     1.4    21.4
    
    A. U. Tomatic                (C) Copyright 2016 MPC           M.P.E.C. 2016-O56
    

    Read MPEC 2016-O55 Read MPEC 2016-O57


    MPEC number:

    Enter an MPEC number in one of the following forms:

    • 1997-B01 (the full form)
    • J97B01 (the packed version of the full form)
    • B01 (the abbreviated form)